SES-5

Last updated on Fri Dec 19 2025 00:02:50 GMT+0000 (Coordinated Universal Time)

1 38652U 12036A 25352.55499462 .00000059 00000+0 00000+0 0 9999 2 38652 0.0555 307.3887 0001818 315.9373 28.8626 1.00270056 42645
UTC large
Height (km)
Speed (km/s)
/
Latitude / Longitude
Inclination (degrees)
Orbital Period (minutes)
Azimuth
Elevation
Range (km)
Doppler Factor

Next 0 passes for location: London (51.5072 / 0.1276)

Sorry there are no passes over London.